Miscellaneous Local Product
Issued by NWS Hastings, NE

Home | Current Version | Previous Version | Graphics & Text | Print | Product List | Glossary On
Versions: 1 2 3 4 5 6 7 8 9 10 11 12 13 14 15 16 17 18 19 20 21 22 23 24 25 26 27 28 29 30 31 32 33 34 35 36 37 38 39 40 41 42 43 44 45 46 47 48 49 50
000
AXUS43 KGID 220802
MISGRI

GID CWA HOURLY WEATHER ROUNDUP
NATIONAL WEATHER SERVICE HASTINGS NE
300 AM CDT SUN OCT 22 2017

NOTE: "FAIR" INDICATES FEW OR NO CLOUDS BELOW 12,000 FEET WITH NO
SIGNIFICANT WEATHER AND/OR OBSTRUCTIONS TO VISIBILITY.

...SOUTH CENTRAL NEBRASKA...

CITY           SKY/WX    TMP DP  RH WIND       PRES   REMARKS
GRAND ISLAND   CLOUDY    38  36  92 W8        30.04F WCI  32
KEARNEY        CLOUDY    36  29  75 W8        30.06R WCI  30
HASTINGS       PTCLDY    40  34  79 W6        30.06R
ORD            CLEAR     32  29  88 CALM      30.04R
YORK           PTCLDY    41  37  87 W7        30.03R
AURORA         PTCLDY    39  36  87 W6        30.04R
LEXINGTON      CLEAR     32  27  83 W6        30.07R WCI  26
HOLDREGE       CLEAR     35  28  77 NW5       30.05F WCI  31
HEBRON         PTCLDY    44  40  85 CALM      30.05R

...NEBRASKA PANHANDLE...

CITY           SKY/WX    TMP DP  RH WIND       PRES   REMARKS
CHADRON        CLEAR     29  14  53 SW5       30.04R WCI  24
ALLIANCE       CLEAR     26  17  68 W9        30.06R HAZE    WCI  17
SCOTTSBLUFF    CLEAR     45  18  34 W17G26    30.07R
SIDNEY         CLEAR     29  16  58 NW8       30.11R WCI  21

...WESTERN AND NORTH CENTRAL NEBRASKA...

CITY           SKY/WX    TMP DP  RH WIND       PRES   REMARKS
VALENTINE      CLEAR     32  28  85 SW3       30.03S
AINSWORTH      CLEAR     34  30  83 SW5       30.03S WCI  30
ONEILL         CLEAR     38  32  80 W7        30.00F WCI  32
BROKEN BOW     CLEAR     30  25  81 CALM      30.05S
IMPERIAL       CLEAR     39  21  48 W9        30.11R WCI  33
NORTH PLATTE   CLEAR     30  25  81 CALM      30.09R
MCCOOK         CLEAR     33  25  72 SW9       30.09S WCI  25

...EASTERN NEBRASKA...

CITY           SKY/WX    TMP DP  RH WIND       PRES   REMARKS
NORFOLK        CLOUDY    37  33  85 CALM      30.01S
SO SIOUX CITY  PTCLDY    42  39  89 W5        29.98F
TEKAMAH        CLOUDY    45  41  86 CALM      30.01R
COLUMBUS       CLOUDY    39  36  89 W6        30.02R WCI  35
ALBION         CLEAR     32  32  97 CALM      30.02S
OMAHA EPPLEY   CLOUDY    49  41  74 NW5       30.01R
OFFUTT AFB     CLOUDY    48  43  83 NW6       30.00R
MILLARD        MOCLDY    50  45  83 CALM      30.01R
LINCOLN        CLOUDY    46  40  79 CALM      30.03R
NEBRASKA CITY  CLOUDY    50  43  78 W5        30.01R
BEATRICE       CLOUDY    47  42  81 W3        30.04R
FALLS CITY     MOCLDY    51  43  74 NW7       30.00R

...NORTHERN KANSAS...

CITY           SKY/WX    TMP DP  RH WIND       PRES   REMARKS
GOODLAND       CLEAR     34  20  56 W10       30.13S WCI  26
HILL CITY      CLOUDY    36  29  75 W8        30.12R WCI  30
NORTON         SUNNY     39  19  45 W12       30.07R WCI  32
PHILLIPSBURG   CLEAR     37  30  75 S3        30.10R
SMITH CENTER   CLEAR     34  32  93 W3        30.09R
HAYS           CLEAR     38  34  85 NW12      30.13R WCI  30
RUSSELL        CLEAR     39  39 100 W8        30.09R WCI  33
CONCORDIA      PTCLDY    44  41  89 W6        30.05R
SALINA         MOCLDY    49  42  77 NW6       30.06R
TOPEKA         CLOUDY    51  50  96 CALM      30.02R



USA.gov is the U.S. government's official web portal to all federal, state and local government web resources and services.